Weather in Yablochny

Russia / Saratov Oblast     51°37′52″N   44°38′37″E
temp.,
°C
wind,
m/s
gust,
m/s
humid.,
%
clouds,
%
prec.,
mm/h
press.,
hPa
HPBL,
m
18 april, sun
sun1801:00+8w239234 0.0 102075
04:00+6wnw36910 0.0 1020127
07:00+6wnw36880 0.0 1019159
10:00+11nw346265 0.0 1019683
13:00+14wnw3447100 0.0 10191418
16:00+14nw3343100 0.0 10181610
19:00+13n2360100 0.0 101896
22:00+9ne358798 0.1 1019105
19 april, mon
mon1901:00+8nne348910 0.0 101971
04:00+7ne339315 0.0 101857
07:00+7ne359083 0.0 1018124
10:00+11ene447048 0.0 1018601
13:00+13ene436297 0.1 10171127
16:00+11ene6568100 0.2 1018705
19:00+9ene5676100 0.0 1019580
22:00+7ene4987100 0.0 1020340
20 april, tue
tue2001:00+7e6118895 0.0 1020467
04:00+5e7138998 0.0 1020504
07:00+5e81489100 0.3 1021524
10:00+5e9168196 0.6 1021742
13:00+6e91674100 0.0 1021789
16:00+8ese111766100 0.0 1019985
19:00+7ese122077100 0.4 1017911
22:00+6ese132278100 3.4 1016950
21 april, wed
wed2101:00+6se132281100 3.3 1016938
04:00+5se122287100 4.2 1015869
07:00+4se112092100 0.1 1016925
10:00+5se102089100 0.1 1016768
13:00+6sse91792100 0.2 1017848
16:00+8sse81588100 0.3 1018750
19:00+8sse5109288 0.0 1019560
22:00+6se6119696 0.1 1022339
22 april, thu
thu2201:00+6se5998100 0.0 1022308
04:00+7sse5998100 0.5 1023381
07:00+7se5998100 0.1 1024325
10:00+9s5790100 0.5 1025468
13:00+14ssw565747 0.6 10241381
16:00+15sw454898 1.1 10241916
19:00+13wsw365954 0.0 1025149
22:00+8nnw34805 0.0 102777